Regional Weather Roundup
Issued by NWS Albany, NY

Home | Current Version | Previous Version | Text Only | Print | Product List | Glossary On
Versions: 1 2 3 4 5 6 7 8 9 10 11 12 13 14 15 16 17 18 19 20 21 22 23 24 25 26 27 28 29 30 31 32 33 34 35 36 37 38 39 40 41 42 43 44 45 46 47 48 49 50
000
ASUS41 KALY 271210
RWRALY

NEW YORK STATE HOURLY WEATHER ROUNDUP
NATIONAL WEATHER SERVICE ALBANY NY
700 AM EST FRI FEB 27 2015

NOTE: "FAIR" INDICATES FEW OR NO CLOUDS BELOW 12,000 FEET WITH NO
SIGNIFICANT WEATHER AND/OR NO OBSTRUCTIONS TO VISIBILITY.

NYZ032-033-038>043-046>054-057>066-NYZ062>081-271300-
EAST


CITY           SKY/WX    TMP DP  RH WIND       PRES   REMARKS
ALBANY         PTCLDY     5  -5  63 NW8       30.35R WCI  -8
GLENS FALLS    FAIR      -9 -16  71 CALM      30.35R
POUGHKEEPSIE   CLEAR      2  -3  80 CALM      30.34R HAZE
MONTGOMERY     MOCLDY    -1  -6  79 CALM      30.31R
WHITE PLAINS   MOCLDY    12   2  64 NW8       30.29R WCI   0
ISLIP          MOCLDY    19   7  59 N10       30.30R WCI   7
NEW YORK CITY  CLOUDY    19   6  57 N10       30.33R WCI   7
CENTRAL PARK   CLOUDY    18   4  54 VRB5      30.34R WCI  11
$$

NYZ005>009-017-018-044>046-055-056-271300-
CENTRAL


CITY           SKY/WX    TMP DP  RH WIND       PRES   REMARKS
FULTON         CLEAR     -2  -8  76 S3        30.34R
SYRACUSE       PTCLDY     5  -1  77 CALM      30.34R
ROME           CLEAR     -9 -12  87 CALM      30.37R
ELMIRA         CLEAR     -6  -9  86 CALM      30.34R FOG
BINGHAMTON     CLEAR      1  -2  87 W5        30.22R WCI  -9
MONTICELLO     CLEAR      3   0  85 NW6       30.23R WCI  -8
$$

NYZ026>034-041>043-271300-
NORTH


CITY           SKY/WX    TMP DP  RH WIND       PRES   REMARKS
WATERTOWN      PTCLDY   -11 -15  82 E6        30.36R WCI -25
FORT DRUM      NOT AVBL
MASSENA        PTCLDY   -18 -24  74 SW3       30.37R
SARANAC LAKE   CLEAR    -23 -28  78 CALM      30.17R
PLATTSBURGH      N/A    -12 -17  78 CALM      30.33R
$$

NYZ001>004-010>016-019>021-271300-
WEST


CITY           SKY/WX    TMP DP  RH WIND       PRES   REMARKS
NIAGARA FALLS  PTCLDY    -5  -9  83 SW5       30.39R WCI -16
BUFFALO        PTCLDY     0  -5  79 SW7       30.38R WCI -13
DUNKIRK        MOCLDY   -11 -14  86 SW5       30.42R WCI -23
JAMESTOWN      PTCLDY    -2  -8  78 CALM      30.28R
WELLSVILLE     CLOUDY     1  -3  83 W5        30.23R WCI  -9
ROCHESTER      PTCLDY     2  -3  80 W8        30.37R WCI -12
PENN YAN       CLEAR      4  -2  76 SW7       30.32R WCI  -8
$$

             KEY
       WCI = WIND CHILL INDEX
       VSB = VISIBILITY
       HX  = HEAT INDEX
$$


USA.gov is the U.S. government's official web portal to all federal, state and local government web resources and services.